Terminal Aerodrome Forecast
Issued by NWS Greer, SC

Home | Current Version | Previous Version | Text Only | Print | Product List | Glossary On
Versions: 1 2 3 4 5 6 7 8 9 10 11 12 13 14 15 16 17 18 19 20 21 22 23 24 25 26 27 28 29 30 31 32 33 34 35 36 37 38 39 40 41 42 43 44 45 46 47 48 49 50
000
FTUS42 KGSP 172300
TAFCLT
TAF
KCLT 172333Z 1800/1824 35003KT P6SM FEW070
     FM180500 02004KT 5SM BR SCT012 BKN025
     FM180800 03003KT 4SM BR BKN007
     FM181400 04004KT P6SM BKN015
     FM181500 04003KT P6SM BKN025
     FM181700 06003KT P6SM BKN035=

USA.gov is the U.S. government's official web portal to all federal, state and local government web resources and services.